[[{"header":{"parameterUnit":"m.s-1","parameterCategory":1,"la1":30.2991,"la2":30.254,"lo1":-89.0895,"lo2":-89.0444,"dy":0.0017,"dx":0.0017,"nx":28,"ny":28,"refTime":"2024-03-18T09:00:00:Z","depth":0,"parameterNumber":2,"parameterNumberName":"U-component_of_WINDS"},"data":[0,0,0,0,0,0,0,0,0,0,0,0,0,0,0,0,0,0,0,0,0,0,0,0,0,0,0,0,0,0,0,0,0,0,0,0,0,0,0,0,0,0,0,0,0,0,0,0,0,0,0,0,0,0,0,0,0,0,0.226,0.226,0,0.2264,0.2264,0.2264,0.2278,0.2278,0.2279,0.2279,0.2282,0.2282,0.2282,0,0,0,0,0,0,0,0,0,0,0,0,0,0.2266,0.2266,0.226,0.226,0.226,0.2264,0.2264,0.2264,0.2278,0.2278,0.2279,0.2279,0.2282,0.2282,0.2282,0,0,0,0,0,0,0,0,0,0,0,0,0,0.2266,0.2266,0.226,0.2268,0.2268,0.2264,0.2264,0.2264,0.2278,0.2278,0.2279,0.2279,0.2282,0.2282,0.2282,0.227,0,0,0.2281,0.2281,0,0,0,0,0,0,0,0,0.2266,0.2266,0.2267,0.2267,0.2268,0.2271,0.2267,0.2266,0.2278,0.2274,0.2279,0.2279,0.2278,0.2278,0.2278,0.227,0.2271,0.2281,0.2281,0.2281,0.228,0,0,0,0,0,0,0,0.2266,0.2266,0.2262,0.2267,0.2267,0.2271,0.2272,0.2267,0.2273,0.2275,0.2276,0.2276,0.2279,0.2278,0.2278,0.2271,0.2281,0.2281,0.228,0.228,0.2254,0.2254,0,0,0,0,0,0,0.2265,0.2266,0.2262,0.2262,0.2268,0.2271,0.2271,0.2269,0.2273,0.2275,0.2275,0.2276,0.2278,0.2278,0.2278,0.2265,0.2281,0.228,0.228,0.2255,0.2254,0.2254,0,0,0,0,0,0,0.2265,0.2265,0.2261,0.2264,0.2264,0.227,0.2268,0.2269,0.2269,0.2274,0.2275,0.2274,0.2279,0.2279,0.2272,0.2265,0.228,0.228,0.2256,0.2255,0.2254,0.2238,0,0,0,0,0,0,0.2265,0.2264,0.226,0.2264,0.2264,0.2255,0.2268,0.2269,0.2268,0.227,0.2273,0.2274,0.2279,0.2273,0.2272,0.2265,0.228,0.2256,0.2255,0.2254,0.2239,0.2237,0.2235,0,0,0,0,0,0.2265,0.2255,0.2259,0.2259,0.2258,0.2255,0.2255,0.2261,0.2268,0.2263,0.2267,0.2274,0.2266,0.2272,0.2271,0.2264,0.2257,0.2256,0.2254,0.224,0.2237,0.2235,0,0,0,0,0,0,0.2249,0.2256,0.2261,0.2251,0.2252,0.2257,0.2251,0.2258,0.2257,0.2258,0.2266,0.2267,0.2259,0.2261,0.2267,0.2253,0.2263,0.2261,0.2252,0.2249,0.2247,0.2246,0.2279,0,0,0,0,0,0.2245,0.2242,0.2247,0.2238,0.2239,0.2245,0.2244,0.2249,0.225,0.2251,0.2254,0.2255,0.2253,0.2252,0.225,0.224,0.2241,0.2235,0.2233,0.2231,0.2229,0.2224,0.2222,0.225,0.225,0.225,0,0,0.2235,0.2238,0.2236,0.2235,0.2237,0.2233,0.2245,0.2241,0.2238,0.225,0.2244,0.2247,0.2249,0.224,0.2237,0.2242,0.2222,0.2229,0.2228,0.2227,0.2223,0.222,0.2218,0.2249,0.225,0.225,0,0,0.2216,0.2218,0.2211,0.2212,0.2214,0.2219,0.2217,0.2221,0.2224,0.2218,0.2227,0.2224,0.2221,0.2222,0.2222,0.2204,0.2211,0.2204,0.2192,0.2187,0.2185,0.2183,0.2176,0.2174,0.2203,0.2203,0.2202,0,0.2203,0.2198,0.2206,0.2201,0.2201,0.2212,0.2205,0.2206,0.2208,0.2208,0.2213,0.2209,0.2212,0.2204,0.22,0.22,0.2198,0.2203,0.2185,0.2183,0.2181,0.2175,0.2172,0.2202,0.2202,0.2202,0.2202,0,0.2183,0.2179,0.2173,0.2175,0.2174,0.2168,0.2176,0.2174,0.218,0.2184,0.2178,0.2182,0.2181,0.218,0.2185,0.2173,0.2176,0.2183,0.2192,0.2177,0.2172,0.2169,0.22,0.2201,0.2201,0.2201,0,0,0.2152,0.2159,0.2156,0.2157,0.2162,0.2159,0.2154,0.2154,0.2152,0.2154,0.215,0.2147,0.2154,0.2154,0.216,0.2156,0.2142,0.2163,0.2163,0.2159,0.2129,0.2123,0.212,0.2147,0.2146,0.2146,0.2128,0,0.2133,0.2124,0.2132,0.2122,0.2119,0.213,0.2126,0.2128,0.2133,0.2131,0.2136,0.2133,0.2143,0.2143,0.214,0.2144,0.2136,0.2146,0.2143,0.2142,0.2141,0.2117,0.211,0.2094,0.2126,0.2126,0.2126,0,0.2109,0.2109,0.2099,0.2105,0.2104,0.21,0.21,0.2099,0.2102,0.2105,0.2106,0.2113,0.2109,0.212,0.2114,0.2121,0.2121,0.2123,0.2122,0.2121,0.2132,0.2115,0.2089,0.2086,0.2122,0.2123,0.2123,0,0.2086,0.2085,0.2078,0.2079,0.2085,0.2082,0.2085,0.2089,0.2088,0.2089,0.2089,0.209,0.209,0.2091,0.2098,0.2105,0.2092,0.2103,0.2094,0.2094,0.209,0.209,0.2062,0.2091,0.2091,0.2091,0.2091,0,0.2063,0.2057,0.2068,0.2064,0.2058,0.2067,0.206,0.2064,0.2067,0.2065,0.2075,0.2072,0.2083,0.2081,0.2087,0.2082,0.2082,0.2085,0.2086,0.2083,0.2083,0.2082,0.2083,0.2091,0.2091,0.2091,0.2091,0,0.2036,0.2044,0.2038,0.2045,0.2047,0.2041,0.2047,0.2044,0.205,0.2046,0.2046,0.2055,0.2054,0.2061,0.2062,0.2066,0.2058,0.2062,0.2056,0.2057,0.2048,0.2049,0.2019,0.2015,0.2047,0.2047,0.2046,0,0.2021,0.2016,0.2023,0.2022,0.2024,0.2022,0.2022,0.2032,0.2031,0.2035,0.2032,0.2032,0.2032,0.203,0.2036,0.2037,0.204,0.203,0.2041,0.2038,0.204,0.2039,0.2039,0.2027,0.2027,0.2027,0.2026,0,0.1992,0.1996,0.1996,0.1997,0.1997,0.1998,0.2,0.1999,0.2009,0.2008,0.2008,0.2008,0.2009,0.2009,0.2011,0.2014,0.2022,0.2023,0.2021,0.2018,0.2014,0.2016,0.2049,0.2024,0.2024,0.2024,0.2024,0.2024,0.197,0.1966,0.197,0.197,0.1973,0.1974,0.1972,0.1978,0.1977,0.1978,0.1985,0.1983,0.1987,0.1991,0.1994,0.1993,0.1998,0.1995,0.1994,0.1993,0.1991,0.2016,0.1993,0.1993,0.1993,0.1993,0.1993,0,0.1941,0.1945,0.1944,0.1947,0.1946,0.1955,0.1958,0.1957,0.1955,0.1959,0.1959,0.1959,0.1959,0.1966,0.1967,0.1965,0.1969,0.1965,0.1965,0.1965,0.1987,0.1988,0.1962,0.1962,0.1962,0.1962,0.1962,0.1962,0.1926,0.192,0.1925,0.1921,0.1925,0.1924,0.1925,0.1927,0.193,0.1929,0.1929,0.1934,0.1939,0.1941,0.1942,0.1944,0.1943,0.1938,0.1941,0.1961,0.1964,0.1967,0.1968,0.1938,0.1938,0.192,0.192,0.192]},{"header":{"parameterUnit":"m.s-1","parameterCategory":1,"la1":30.2991,"la2":30.254,"lo1":-89.0895,"lo2":-89.0444,"dy":0.0017,"dx":0.0017,"nx":28,"ny":28,"refTime":"2024-03-18T09:00:00:Z","depth":0,"parameterNumber":3,"parameterNumberName":"V-component_of_WINDS"},"data":[0,0,0,0,0,0,0,0,0,0,0,0,0,0,0,0,0,0,0,0,0,0,0,0,0,0,0,0,0,0,0,0,0,0,0,0,0,0,0,0,0,0,0,0,0,0,0,0,0,0,0,0,0,0,0,0,0,0,-5.2324,-5.2325,0,-5.2433,-5.2435,-5.2436,-5.2336,-5.2332,-5.2328,-5.2325,-5.2436,-5.2442,-5.2449,0,0,0,0,0,0,0,0,0,0,0,0,0,-5.2028,-5.2033,-5.2324,-5.2325,-5.2326,-5.2433,-5.2435,-5.2436,-5.2337,-5.2332,-5.2327,-5.2323,-5.2434,-5.2441,-5.245,0,0,0,0,0,0,0,0,0,0,0,0,0,-5.2149,-5.2035,-5.2323,-5.229,-5.2288,-5.2433,-5.2435,-5.2437,-5.2338,-5.2332,-5.2326,-5.232,-5.2431,-5.2441,-5.2451,-5.2634,0,0,-5.2481,-5.2486,0,0,0,0,0,0,0,0,-5.2142,-5.216,-5.2293,-5.2292,-5.2291,-5.2365,-5.2371,-5.2503,-5.234,-5.2319,-5.2324,-5.2317,-5.2417,-5.2428,-5.2462,-5.2639,-5.2644,-5.2482,-5.2488,-5.2493,-5.2496,0,0,0,0,0,0,0,-5.2134,-5.2154,-5.2367,-5.2295,-5.2294,-5.2269,-5.228,-5.2395,-5.2401,-5.232,-5.2313,-5.2328,-5.2415,-5.2452,-5.2464,-5.2646,-5.2482,-5.2491,-5.2497,-5.2501,-5.298,-5.2986,0,0,0,0,0,0,-5.2129,-5.2148,-5.2363,-5.237,-5.22,-5.2279,-5.2291,-5.2347,-5.2399,-5.2401,-5.2333,-5.2323,-5.2438,-5.2452,-5.2467,-5.2686,-5.2493,-5.2502,-5.2508,-5.2973,-5.2981,-5.2988,0,0,0,0,0,0,-5.2123,-5.2149,-5.2359,-5.2257,-5.2282,-5.2291,-5.2355,-5.2353,-5.239,-5.2409,-5.2409,-5.237,-5.2434,-5.2453,-5.2594,-5.2689,-5.2507,-5.2516,-5.2965,-5.2976,-5.2985,-5.3126,0,0,0,0,0,0,-5.2115,-5.2148,-5.2218,-5.226,-5.2288,-5.2485,-5.2361,-5.2359,-5.2407,-5.2395,-5.2444,-5.2446,-5.2431,-5.2579,-5.2604,-5.2699,-5.2524,-5.2957,-5.297,-5.2982,-5.3113,-5.3139,-5.3162,0,0,0,0,0,-5.2105,-5.2252,-5.2222,-5.2248,-5.2376,-5.249,-5.2506,-5.2486,-5.2415,-5.2486,-5.2498,-5.2444,-5.2674,-5.2594,-5.2621,-5.2721,-5.2951,-5.2966,-5.2981,-5.3102,-5.3134,-5.3162,0,0,0,0,0,0,-5.2221,-5.2257,-5.2224,-5.2389,-5.2438,-5.2473,-5.2561,-5.2521,-5.259,-5.2576,-5.2547,-5.2559,-5.2708,-5.2728,-5.2639,-5.2902,-5.2801,-5.2822,-5.2884,-5.2915,-5.2939,-5.2932,-5.2532,0,0,0,0,0,-5.2266,-5.2356,-5.2382,-5.2526,-5.2552,-5.2553,-5.2602,-5.2582,-5.2631,-5.2651,-5.2673,-5.2722,-5.2805,-5.2861,-5.2938,-5.3114,-5.3124,-5.3197,-5.3221,-5.3242,-5.3261,-5.3357,-5.339,-5.3038,-5.3038,-5.3037,0,0,-5.2359,-5.239,-5.2449,-5.255,-5.2585,-5.268,-5.2571,-5.2675,-5.2744,-5.2666,-5.2801,-5.2819,-5.2872,-5.3032,-5.3103,-5.3053,-5.336,-5.3261,-5.3277,-5.3285,-5.3376,-5.3409,-5.3439,-5.3048,-5.3046,-5.3044,0,0,-5.2579,-5.2611,-5.2735,-5.2772,-5.2827,-5.2826,-5.2856,-5.2898,-5.2908,-5.3043,-5.2986,-5.3068,-5.3212,-5.3252,-5.3292,-5.3527,-5.348,-5.3552,-5.3682,-5.3776,-5.3804,-5.3829,-5.3914,-5.3945,-5.3571,-5.3571,-5.3572,0,-5.2688,-5.2828,-5.2803,-5.2912,-5.2959,-5.2893,-5.3018,-5.3055,-5.3133,-5.3166,-5.3109,-5.3289,-5.3319,-5.3489,-5.3546,-5.3579,-5.3613,-5.3548,-5.3802,-5.3826,-5.3849,-5.393,-5.3962,-5.358,-5.3579,-5.3578,-5.3577,0,-5.2961,-5.3059,-5.3152,-5.323,-5.3286,-5.3403,-5.3396,-5.3456,-5.3432,-5.3437,-5.3576,-5.361,-5.3694,-5.3732,-5.3709,-5.3899,-5.3866,-5.3806,-5.3705,-5.3892,-5.3968,-5.3998,-5.3592,-5.3589,-5.3587,-5.3584,0,0,-5.3258,-5.332,-5.3355,-5.339,-5.3445,-5.352,-5.3634,-5.3716,-5.3769,-5.3824,-5.392,-5.4043,-5.3988,-5.4033,-5.4013,-5.4095,-5.4281,-5.4025,-5.4026,-5.4073,-5.4494,-5.4541,-5.4577,-5.425,-5.4256,-5.426,-5.449,0,-5.348,-5.3679,-5.366,-5.3848,-5.3939,-5.3877,-5.3976,-5.4021,-5.4029,-5.4107,-5.4115,-5.4204,-5.4124,-5.4151,-5.423,-5.4242,-5.4366,-5.4225,-5.4339,-5.4343,-5.433,-5.4616,-5.4666,-5.4881,-5.452,-5.4525,-5.4528,0,-5.3767,-5.3834,-5.4032,-5.4074,-5.4111,-5.4201,-5.4276,-5.4351,-5.44,-5.44,-5.4451,-5.4417,-5.4531,-5.4426,-5.4583,-5.4488,-5.4533,-5.4547,-5.4554,-5.4566,-5.4449,-5.4637,-5.4949,-5.4983,-5.4574,-5.4571,-5.4567,0,-5.3966,-5.4105,-5.4241,-5.4273,-5.4325,-5.439,-5.4415,-5.4458,-5.4509,-5.4574,-5.4607,-5.4684,-5.4727,-5.4788,-5.4776,-5.47,-5.4937,-5.483,-5.4941,-5.4942,-5.4996,-5.4993,-5.5321,-5.5022,-5.5021,-5.502,-5.502,0,-5.4218,-5.4342,-5.4332,-5.4416,-5.4553,-5.453,-5.4666,-5.4683,-5.4722,-5.4809,-5.4759,-5.4841,-5.4819,-5.4901,-5.4891,-5.5024,-5.5043,-5.5047,-5.5044,-5.5053,-5.5053,-5.5084,-5.5069,-5.5029,-5.5027,-5.5025,-5.5024,0,-5.4464,-5.4462,-5.4607,-5.4646,-5.4658,-5.4758,-5.479,-5.487,-5.4873,-5.4984,-5.5008,-5.5015,-5.5108,-5.5101,-5.5206,-5.52,-5.5364,-5.5342,-5.5349,-5.5344,-5.5457,-5.5447,-5.5818,-5.5866,-5.5533,-5.5537,-5.5539,0,-5.4626,-5.472,-5.4769,-5.4824,-5.4853,-5.4942,-5.4994,-5.4974,-5.5031,-5.5095,-5.5167,-5.5256,-5.5326,-5.5478,-5.5491,-5.5571,-5.5552,-5.5676,-5.5564,-5.5571,-5.5556,-5.5552,-5.5562,-5.5699,-5.5703,-5.5706,-5.5708,0,-5.4915,-5.4909,-5.4987,-5.5065,-5.5129,-5.519,-5.5244,-5.5292,-5.5278,-5.5344,-5.5439,-5.5494,-5.5601,-5.569,-5.5767,-5.5791,-5.5749,-5.5744,-5.5774,-5.5786,-5.5786,-5.579,-5.5411,-5.5736,-5.5733,-5.5731,-5.573,-5.5728,-5.5125,-5.5207,-5.5254,-5.5343,-5.5382,-5.5435,-5.5512,-5.5526,-5.5605,-5.5692,-5.5674,-5.5782,-5.5829,-5.5927,-5.596,-5.6043,-5.5998,-5.6042,-5.6053,-5.6065,-5.6079,-5.5771,-5.6057,-5.6056,-5.6055,-5.6054,-5.6054,0,-5.5413,-5.5441,-5.5522,-5.5601,-5.5671,-5.5624,-5.5683,-5.5744,-5.584,-5.5888,-5.5958,-5.6068,-5.6154,-5.6175,-5.6258,-5.6321,-5.6303,-5.6343,-5.6339,-5.6346,-5.6113,-5.608,-5.6356,-5.6356,-5.6356,-5.6356,-5.6356,-5.6356,-5.5571,-5.5707,-5.5707,-5.5862,-5.5888,-5.5994,-5.6032,-5.608,-5.6118,-5.6244,-5.6316,-5.6328,-5.6366,-5.6451,-5.6528,-5.6532,-5.6565,-5.6614,-5.661,-5.6393,-5.6362,-5.6334,-5.6302,-5.6621,-5.6621,-5.6837,-5.6839,-5.684]}]]